Theta_e
312 316 320 322 322 325 324 324 324 324 323 321 320 314 312 308 308 306 303 302 301 299 298 297 296 297 295 296 296 295 294 294 292 292 292 292 290 290 290 291 291 290 290
310 310 310 312 312 314 320 321 320 317 315 313 310 307 305 303 303 301 297 297 297 295 294 295 294 294 294 294 294 293 292 291 290 288 289 289 288 289 289 288 289 290 290
309 309 309 310 311 311 314 311 311 308 305 305 304 303 301 300 299 297 296 295 294 293 293 293 292 292 291 291 291 290 290 289 289 287 286 288 288 288 286 287 287 288 289
307 307 307 308 308 308 306 305 303 302 301 301 302 300 298 296 294 291 292 292 292 291 292 291 291 291 290 289 288 288 288 287 286 286 285 285 286 286 285 284 283 285 285
306 305 304 301 304 299 298 296 295 295 295 294 294 292 292 293 290 289 289 290 289 289 289 289 289 287 289 289 288 287 287 286 285 285 284 284 284 283 282 283 282 283 284
304 302 298 297 295 294 293 290 290 290 290 290 289 290 289 287 292 292 290 288 288 286 286 286 286 285 287 287 288 288 288 285 283 283 283 282 283 283 283 282 282 280 278
302 299 293 292 291 290 290 289 288 288 289 288 288 288 287 288 291 291 289 287 287 286 285 285 284 285 286 286 287 287 286 286 286 285 282 283 283 284 284 283 281 281 280
296 294 292 290 289 288 288 287 287 287 287 287 287 288 288 288 290 289 288 287 287 287 286 286 285 285 285 285 285 284 284 284 285 285 285 285 285 285 286 285 283 281 281
294 292 291 290 288 287 287 286 286 286 286 287 287 287 287 287 289 288 287 286 285 285 286 286 286 285 286 286 285 283 283 284 287 286 286 286 287 287 286 283 280 278 276
292 291 290 289 287 288 287 286 286 286 285 286 286 286 286 286 289 288 287 286 285 284 284 284 284 284 286 287 284 282 279 282 282 281 283 284 284 283 283 282 280 277 276
289 288 287 287 286 287 286 285 285 285 285 285 285 285 286 286 287 288 288 285 285 284 284 283 283 285 286 287 286 282 282 282 280 278 280 281 280 280 280 280 280 279 276
287 286 285 285 285 285 285 285 285 285 284 284 284 284 284 284 286 288 288 287 287 285 284 284 283 285 286 286 284 283 281 278 277 276 276 276 277 277 277 277 276 275 276
285 285 285 285 285 285 285 284 284 284 284 283 283 283 283 283 284 288 288 288 287 284 285 284 285 285 285 282 281 280 274 275 275 273 274 275 276 275 274 273 273 273 273
285 284 284 284 284 284 285 284 284 284 283 283 283 283 283 282 283 285 285 286 285 284 284 283 283 282 281 279 276 276 276 275 274 274 273 273 273 272 271 272 270 270 270
284 283 284 284 284 283 283 284 283 284 285 284 284 284 283 281 283 285 285 284 285 284 283 280 278 276 275 275 275 273 274 272 271 272 270 270 270 271 270 270 269 268 267
283 283 283 283 283 282 282 280 282 282 282 283 284 285 285 283 285 285 285 285 285 285 279 278 277 277 276 276 275 274 273 269 272 270 269 269 268 268 267 267 268 266 265
284 283 282 281 282 281 280 281 280 279 280 282 283 283 283 283 283 284 285 285 284 283 278 278 277 277 276 275 274 273 272 272 267 267 268 268 267 266 265 265 266 266 265
282 281 282 282 281 281 281 281 281 280 279 280 281 282 283 283 282 283 284 284 281 282 279 277 276 276 275 274 273 271 270 269 267 267 267 266 264 264 263 264 265 263 262
280 281 280 281 281 280 281 280 280 280 280 281 278 279 278 283 283 283 284 282 280 279 277 274 274 274 274 273 272 271 269 268 268 266 265 264 263 263 263 264 263 263 260
277 274 275 279 279 278 278 278 278 278 278 278 278 277 278 276 280 281 280 281 281 279 277 275 274 272 272 271 270 269 268 266 265 264 265 265 265 264 263 263 262 261 260
276 277 271 276 277 277 277 276 277 277 277 277 277 278 279 276 278 279 280 280 280 280 277 275 273 271 270 269 269 268 267 267 266 265 265 265 264 264 264 263 263 261 259
273 274 274 274 274 274 274 274 274 274 275 275 275 277 278 276 274 275 277 278 279 276 275 273 271 271 269 267 267 267 267 265 266 266 265 264 264 263 262 262 262 261 260
272 272 272 272 272 270 271 272 272 272 272 273 273 273 272 271 273 274 274 274 275 274 272 271 270 269 269 268 268 267 266 266 266 266 264 264 263 263 263 262 261 260 259
269 269 269 269 269 269 269 270 270 269 269 269 270 270 270 270 270 270 271 272 272 271 269 268 267 267 267 266 265 266 266 267 267 266 265 264 263 262 262 261 261 261 259
267 267 267 267 267 267 267 268 268 268 268 268 268 268 268 268 267 268 268 268 267 267 267 266 265 264 264 265 265 265 265 266 265 265 264 263 262 262 261 260 260 260 259
263 264 264 264 264 265 265 265 265 266 266 266 266 266 266 265 266 266 266 265 265 265 265 266 265 264 264 264 264 265 265 266 264 264 262 261 260 260 260 259 259 258 257
Wind_Speed
6 6 7 7 9 8 5 6 5 6 8 7 8 8 7 7 6 8 6 7 8 7 6 7 7 6 3 4 3 3 3 0 2 3 2 3 0 2 4 4 5 5 5
6 6 6 6 7 7 6 6 4 5 5 7 8 9 8 8 7 11 8 7 8 9 6 7 7 5 6 5 3 4 3 3 1 2 2 2 1 2 3 5 4 5 5
5 5 5 5 5 5 2 4 4 6 6 6 8 8 8 8 8 7 9 9 8 7 6 6 8 6 5 4 4 4 3 3 2 2 1 1 2 0 3 4 4 4 5
5 5 5 5 6 6 5 5 6 6 7 6 6 8 8 7 8 8 9 9 8 6 6 5 6 5 6 6 4 4 4 3 2 1 0 2 1 1 2 3 5 2 6
5 5 4 2 3 5 5 5 5 6 6 7 7 7 6 7 6 10 8 9 9 8 6 5 6 6 8 6 5 4 4 3 2 1 1 2 1 2 3 3 5 6 8
6 6 5 5 4 4 5 6 7 7 6 6 7 7 6 4 12 12 10 8 8 8 7 6 6 6 7 8 7 6 4 4 2 1 1 1 2 2 2 4 5 7 5
7 6 6 6 7 6 5 7 7 7 7 7 6 7 7 7 13 13 11 7 7 7 7 7 5 3 5 5 7 5 4 3 1 1 2 2 3 4 5 9 7 6 6
6 6 4 5 5 5 6 6 6 5 7 7 6 6 8 6 14 14 12 8 7 6 6 6 6 6 5 5 4 3 3 2 2 2 2 4 6 6 4 3 10 8 5
6 6 7 6 6 6 6 7 5 6 5 4 4 6 7 7 14 15 10 7 6 6 5 5 5 6 8 8 3 2 2 2 2 1 5 8 10 10 9 5 7 7 8
4 5 6 6 5 4 5 6 3 4 4 5 6 6 7 7 14 14 10 5 7 5 4 4 7 5 8 9 3 3 2 2 1 2 2 3 5 4 7 4 3 4 6
6 6 6 6 5 6 5 2 5 6 7 6 6 4 6 6 8 13 11 5 6 5 5 5 3 8 9 9 6 3 3 2 2 2 2 1 1 2 1 1 2 3 5
7 6 6 6 6 6 7 5 6 6 7 6 5 4 2 3 6 12 12 8 9 5 5 4 4 11 10 9 5 4 3 1 1 1 1 2 2 1 2 2 3 3 4
7 7 6 6 5 6 7 7 5 5 5 5 5 4 4 3 3 11 12 11 9 3 2 5 8 10 8 5 7 7 4 2 2 2 2 1 1 1 1 2 3 4 5
6 6 6 6 6 5 4 5 5 6 5 4 5 5 5 5 5 5 4 5 8 5 5 4 6 6 4 3 3 5 3 2 2 2 2 1 0 1 2 1 1 2 3
5 4 4 3 4 4 2 3 3 1 4 5 5 5 6 6 7 9 9 6 6 7 6 4 3 4 5 5 4 3 3 4 4 3 2 2 2 2 2 0 1 2 3
4 2 3 3 3 2 3 1 2 4 3 1 1 4 2 1 9 15 15 14 14 14 4 5 6 6 7 6 6 6 5 4 4 3 2 2 2 2 1 1 2 2 2
3 2 2 2 2 2 2 2 3 2 3 8 8 7 8 3 8 12 16 16 16 14 6 6 7 7 6 5 4 5 5 4 3 2 3 3 2 2 2 2 2 2 3
4 3 2 2 2 2 2 3 2 3 3 2 7 8 8 10 9 12 15 15 8 12 7 7 6 5 5 5 5 5 3 3 4 5 4 3 3 3 2 2 2 2 2
3 2 1 1 1 1 1 2 2 2 3 3 2 3 3 11 11 11 15 8 8 8 6 5 5 5 5 4 4 4 4 5 4 4 3 3 3 3 4 3 3 4 3
3 4 3 1 0 1 1 2 3 3 4 4 4 4 3 0 6 8 8 8 9 9 7 8 7 6 5 6 5 5 5 5 5 4 4 4 5 4 4 4 4 4 3
3 2 2 1 1 1 1 2 2 3 4 4 4 2 7 5 6 7 7 8 10 9 8 7 6 6 6 5 5 6 7 6 7 7 7 7 6 6 5 5 4 3 3
3 3 2 2 2 1 2 2 3 4 4 5 5 5 11 6 7 7 8 8 7 6 6 6 6 7 7 8 8 8 8 8 8 8 7 7 7 7 5 6 5 4 4
3 3 2 2 2 3 3 3 3 4 5 5 5 4 4 5 7 7 7 7 6 6 5 6 7 6 6 7 7 8 9 9 8 7 8 7 6 6 6 7 6 5 5
3 3 3 2 2 2 3 4 4 4 4 5 5 5 5 5 6 6 7 5 5 5 5 6 6 7 6 6 6 6 6 6 6 7 9 8 8 8 7 6 6 7 5
4 4 4 4 4 4 5 5 5 4 5 5 5 5 5 5 6 6 6 5 4 5 6 6 5 7 10 11 10 11 10 13 10 7 6 8 8 9 7 6 7 6 7
4 4 4 4 4 4 5 5 5 5 5 5 5 5 5 6 6 5 5 4 5 5 6 5 6 9 9 9 11 12 11 12 11 12 8 7 7 7 6 8 10 7 7
Wind_Direction
214 215 223 225 226 220 214 214 190 175 174 164 156 133 139 130 134 121 124 122 124 123 117 124 128 125 120 108 96 106 104 30 178 88 66 91 239 325 318 321 306 314 313
188 189 205 204 207 216 208 204 173 147 132 142 141 134 137 132 157 130 130 126 137 131 134 136 132 131 123 122 124 112 109 53 70 125 98 174 240 317 329 304 313 315 315
164 179 183 198 197 216 181 101 131 144 133 132 139 143 138 138 139 125 130 131 126 133 145 140 137 141 132 123 124 116 120 118 115 148 156 138 244 57 304 284 314 293 306
174 189 188 188 189 198 151 161 146 142 135 128 134 123 123 130 120 117 122 123 117 113 108 116 119 133 127 127 115 132 139 130 122 118 274 281 283 26 277 325 323 325 314
175 180 179 116 130 118 121 109 99 94 101 95 101 87 111 123 136 126 128 126 125 119 100 102 90 88 108 129 153 153 142 142 131 131 285 350 323 345 337 323 320 319 305
178 166 146 151 131 126 117 114 107 100 93 100 97 115 109 97 126 123 126 128 128 123 123 105 117 125 125 131 113 113 117 131 110 81 234 271 281 294 307 335 318 340 332
171 155 155 146 144 139 132 129 130 128 124 110 112 120 120 125 130 127 121 114 116 124 133 141 140 137 137 148 149 142 124 126 183 283 249 260 301 325 329 321 322 314 299
161 145 142 141 139 134 128 123 108 117 126 130 135 134 127 132 140 136 121 121 118 129 149 154 153 160 174 164 158 163 184 186 207 253 275 295 294 300 319 332 313 297 297
172 162 153 154 141 148 140 134 120 129 126 112 120 117 123 131 146 149 132 119 130 133 147 157 163 166 175 178 157 184 210 206 268 260 288 293 301 307 316 323 315 322 320
163 149 137 129 128 142 131 122 96 96 83 108 103 110 121 136 163 162 143 139 139 143 153 154 169 163 176 194 174 179 211 222 188 270 310 316 307 323 327 314 327 319 320
121 123 118 121 127 121 115 94 128 124 121 122 118 119 139 152 170 175 168 152 155 159 173 173 166 184 190 198 198 151 235 50 335 286 259 274 270 245 236 35 329 305 298
128 127 126 133 132 131 128 130 124 133 133 135 136 153 141 130 171 186 187 174 172 170 174 162 162 192 198 205 181 179 147 180 220 246 231 236 240 21 13 10 334 278 270
127 129 134 130 133 138 145 147 137 140 145 161 174 175 172 167 186 202 195 196 194 148 127 160 175 192 205 164 172 170 173 200 209 216 215 224 78 30 328 264 275 272 264
121 129 133 142 140 142 139 150 156 164 165 169 186 190 179 181 197 193 191 189 193 160 158 157 175 167 186 157 159 192 220 196 221 215 208 154 161 242 256 263 294 306 295
91 96 111 112 135 131 87 153 168 136 180 189 206 193 181 200 208 192 181 179 178 176 158 144 171 185 195 203 204 188 192 177 207 196 199 200 224 226 248 317 271 283 265
101 117 130 121 129 129 146 136 21 21 200 225 159 181 184 110 183 194 196 194 192 189 173 197 206 207 213 210 206 196 195 192 204 170 194 199 215 212 239 314 268 257 269
58 100 107 110 134 146 146 190 212 182 243 233 230 232 235 224 211 204 203 200 198 190 210 213 217 212 210 209 201 201 203 193 120 193 209 186 182 203 189 226 244 259 273
74 77 137 157 165 180 191 210 217 209 224 220 230 233 235 232 228 219 204 198 206 217 211 221 228 221 216 207 192 197 194 162 185 205 202 185 176 197 188 221 233 223 265
28 45 31 66 145 186 185 206 220 236 243 237 137 224 246 227 215 217 211 215 221 225 218 217 228 228 219 212 204 193 193 204 201 187 200 196 184 185 213 205 218 236 218
59 37 359 4 92 217 219 233 233 235 240 236 231 235 143 194 218 212 213 226 227 225 221 214 208 204 210 209 200 197 199 197 198 203 209 209 202 205 215 216 205 214 208
20 55 25 328 311 318 304 264 266 260 247 245 247 215 229 216 238 238 232 227 229 232 218 213 199 199 191 213 209 204 208 209 200 205 200 200 199 211 209 222 226 201 207
7 1 358 339 332 285 262 249 249 246 248 246 247 234 237 234 225 233 238 241 235 221 217 212 209 205 192 194 198 207 211 213 211 206 208 201 193 199 202 211 212 212 212
351 335 319 304 296 305 285 268 272 275 276 275 273 262 219 240 251 249 244 243 240 235 223 221 226 218 201 199 203 207 210 209 211 207 203 206 200 205 203 205 204 215 215
349 332 327 312 307 305 288 284 277 270 258 272 281 281 270 264 260 256 265 260 234 222 212 212 219 223 214 206 206 212 214 213 205 209 201 202 199 197 199 204 204 215 216
351 345 339 331 323 317 315 304 296 294 291 290 290 287 286 282 275 270 272 267 254 251 241 224 214 218 221 219 213 208 209 214 212 208 204 202 207 203 199 202 207 213 212
351 342 333 327 318 314 308 305 303 300 295 292 289 287 285 283 281 278 271 254 253 249 247 237 227 229 231 234 236 232 226 216 216 212 201 199 202 209 208 211 214 216 217